TimeCDT,TemperatureF,Dew PointF,Humidity,Sea Level PressureIn,VisibilityMPH,Wind Direction,Wind SpeedMPH,Gust SpeedMPH,PrecipitationIn,Events,Conditions,WindDirDegrees,DateUTC
12:15 AM,55.9,50.4,82,30.07,10.0,Calm,Calm,-,N/A,,Clear,0,2013-07-25 05:15:00
12:35 AM,55.6,51.3,85,30.08,10.0,Calm,Calm,-,N/A,,Clear,0,2013-07-25 05:35:00
12:55 AM,54.5,51.4,89,30.07,10.0,Calm,Calm,-,N/A,,Clear,0,2013-07-25 05:55:00
1:15 AM,55.2,51.3,87,30.07,10.0,Calm,Calm,-,N/A,,Clear,0,2013-07-25 06:15:00
1:35 AM,54.1,51.1,89,30.07,10.0,Calm,Calm,-,N/A,,Clear,0,2013-07-25 06:35:00
1:55 AM,53.6,51.8,94,30.07,10.0,Calm,Calm,-,N/A,,Clear,0,2013-07-25 06:55:00
2:15 AM,53.2,51.6,94,30.07,10.0,Calm,Calm,-,N/A,,Clear,0,2013-07-25 07:15:00
2:35 AM,53.4,52.0,95,30.07,10.0,Calm,Calm,-,N/A,,Clear,0,2013-07-25 07:35:00
2:55 AM,53.1,51.8,95,30.07,10.0,Calm,Calm,-,N/A,,Clear,0,2013-07-25 07:55:00
3:15 AM,52.3,51.3,96,30.06,10.0,Calm,Calm,-,N/A,,Clear,0,2013-07-25 08:15:00
3:35 AM,52.3,51.4,97,30.07,10.0,Calm,Calm,-,N/A,,Clear,0,2013-07-25 08:35:00
3:55 AM,52.0,51.1,97,30.07,2.0,Calm,Calm,-,N/A,,Clear,0,2013-07-25 08:55:00
4:15 AM,51.8,50.2,94,30.08,10.0,Calm,Calm,-,N/A,,Clear,0,2013-07-25 09:15:00
4:35 AM,51.1,50.0,96,30.09,10.0,Calm,Calm,-,N/A,,Clear,0,2013-07-25 09:35:00
4:55 AM,51.1,50.2,97,30.10,10.0,Calm,Calm,-,N/A,,Clear,0,2013-07-25 09:55:00
5:15 AM,51.3,50.4,97,30.11,10.0,Calm,Calm,-,N/A,,Clear,0,2013-07-25 10:15:00
5:35 AM,50.9,50.0,97,30.10,10.0,Calm,Calm,-,N/A,,Clear,0,2013-07-25 10:35:00
5:55 AM,51.3,50.5,97,30.10,4.0,Calm,Calm,-,N/A,,Clear,0,2013-07-25 10:55:00
6:15 AM,52.5,51.6,97,30.11,10.0,Calm,Calm,-,N/A,,Clear,0,2013-07-25 11:15:00
6:35 AM,54.7,52.9,94,30.11,10.0,Calm,Calm,-,N/A,,Clear,0,2013-07-25 11:35:00
6:55 AM,59.0,53.1,81,30.12,10.0,Calm,Calm,-,N/A,,Clear,0,2013-07-25 11:55:00
7:15 AM,61.2,52.9,74,30.12,10.0,Calm,Calm,-,N/A,,Clear,0,2013-07-25 12:15:00
7:35 AM,63.0,53.1,70,30.13,10.0,WNW,3.5,-,N/A,,Clear,290,2013-07-25 12:35:00
7:55 AM,63.9,52.7,67,30.14,10.0,Calm,Calm,-,N/A,,Clear,0,2013-07-25 12:55:00
8:15 AM,64.8,52.5,64,30.12,10.0,Calm,Calm,-,N/A,,Clear,0,2013-07-25 13:15:00
8:35 AM,65.3,52.2,62,30.12,10.0,Calm,Calm,-,N/A,,Clear,0,2013-07-25 13:35:00
8:55 AM,67.3,52.9,60,30.12,10.0,Calm,Calm,-,N/A,,Clear,0,2013-07-25 13:55:00
9:15 AM,68.2,52.2,56,30.12,10.0,Calm,Calm,-,N/A,,Clear,0,2013-07-25 14:15:00
9:35 AM,70.0,53.2,55,30.11,10.0,SW,3.5,-,N/A,,Clear,230,2013-07-25 14:35:00
9:55 AM,70.2,52.9,54,30.13,10.0,South,4.6,-,N/A,,Clear,190,2013-07-25 14:55:00
10:15 AM,70.9,52.5,52,30.12,10.0,Calm,Calm,-,N/A,,Clear,0,2013-07-25 15:15:00
10:35 AM,72.1,52.2,49,30.12,10.0,SSE,3.5,-,N/A,,Clear,150,2013-07-25 15:35:00
10:55 AM,72.7,51.8,48,30.12,10.0,South,3.5,-,N/A,,Scattered Clouds,180,2013-07-25 15:55:00
11:15 AM,73.8,51.6,46,30.12,10.0,Calm,Calm,-,N/A,,Scattered Clouds,0,2013-07-25 16:15:00
11:35 AM,74.7,49.1,40,30.12,10.0,NNW,3.5,-,N/A,,Clear,330,2013-07-25 16:35:00
11:55 AM,74.3,49.3,41,30.12,10.0,East,3.5,-,N/A,,Clear,90,2013-07-25 16:55:00
12:15 PM,75.9,50.0,40,30.12,10.0,WSW,4.6,-,N/A,,Scattered Clouds,240,2013-07-25 17:15:00
12:35 PM,76.3,49.3,39,30.13,10.0,Calm,Calm,-,N/A,,Scattered Clouds,0,2013-07-25 17:35:00
12:55 PM,76.6,49.3,38,30.12,10.0,Calm,Calm,-,N/A,,Scattered Clouds,0,2013-07-25 17:55:00
1:15 PM,77.2,49.5,38,30.12,10.0,West,6.9,-,N/A,,Scattered Clouds,280,2013-07-25 18:15:00
1:35 PM,76.6,50.0,39,30.11,10.0,West,3.5,-,N/A,,Scattered Clouds,270,2013-07-25 18:35:00
1:55 PM,76.8,50.0,39,30.11,10.0,NE,3.5,-,N/A,,Clear,50,2013-07-25 18:55:00
2:15 PM,77.7,49.1,36,30.11,10.0,SE,3.5,-,N/A,,Clear,130,2013-07-25 19:15:00
2:35 PM,79.5,49.1,34,30.11,10.0,WNW,4.6,-,N/A,,Clear,300,2013-07-25 19:35:00
2:55 PM,78.8,50.4,37,30.09,10.0,NW,4.6,-,N/A,,Clear,310,2013-07-25 19:55:00
3:15 PM,78.3,49.8,37,30.08,10.0,West,4.6,-,N/A,,Clear,270,2013-07-25 20:15:00
3:35 PM,78.4,50.4,37,30.07,10.0,South,5.8,-,N/A,,Clear,190,2013-07-25 20:35:00
3:55 PM,79.2,50.2,36,30.07,10.0,NW,5.8,-,N/A,,Clear,310,2013-07-25 20:55:00
4:15 PM,77.9,50.2,38,30.07,10.0,West,5.8,-,N/A,,Scattered Clouds,260,2013-07-25 21:15:00
4:35 PM,77.4,51.8,41,30.07,10.0,SW,4.6,-,N/A,,Clear,230,2013-07-25 21:35:00
4:55 PM,78.1,52.7,41,30.08,10.0,SW,4.6,-,N/A,,Scattered Clouds,220,2013-07-25 21:55:00
5:15 PM,79.0,52.0,39,30.07,10.0,WNW,3.5,-,N/A,,Scattered Clouds,290,2013-07-25 22:15:00
5:35 PM,79.0,52.3,39,30.07,10.0,WSW,4.6,-,N/A,,Clear,250,2013-07-25 22:35:00
5:55 PM,77.7,53.1,42,30.07,10.0,WSW,3.5,-,N/A,,Scattered Clouds,240,2013-07-25 22:55:00
6:15 PM,77.9,53.8,43,30.07,10.0,SSW,4.6,-,N/A,,Scattered Clouds,210,2013-07-25 23:15:00
6:35 PM,77.7,54.5,45,30.06,10.0,SSW,5.8,-,N/A,,Clear,200,2013-07-25 23:35:00
6:55 PM,75.2,54.9,49,30.06,10.0,SW,4.6,-,N/A,,Clear,220,2013-07-25 23:55:00
7:15 PM,75.4,55.2,49,30.07,10.0,SW,3.5,-,N/A,,Clear,230,2013-07-26 00:15:00
7:35 PM,74.3,55.9,53,30.07,10.0,Calm,Calm,-,N/A,,Clear,0,2013-07-26 00:35:00
7:55 PM,73.4,56.3,55,30.07,10.0,Calm,Calm,-,N/A,,Clear,0,2013-07-26 00:55:00
8:15 PM,72.3,56.5,57,30.07,10.0,Calm,Calm,-,N/A,,Clear,0,2013-07-26 01:15:00
8:35 PM,70.0,57.6,65,30.07,10.0,Calm,Calm,-,N/A,,Clear,0,2013-07-26 01:35:00
8:55 PM,69.4,57.4,65,30.07,10.0,Calm,Calm,-,N/A,,Clear,0,2013-07-26 01:55:00
9:15 PM,70.7,57.0,62,30.08,10.0,Calm,Calm,-,N/A,,Clear,0,2013-07-26 02:15:00
9:35 PM,69.8,57.2,64,30.08,10.0,Calm,Calm,-,N/A,,Clear,0,2013-07-26 02:35:00
9:55 PM,67.6,57.6,70,30.09,10.0,Calm,Calm,-,N/A,,Clear,0,2013-07-26 02:55:00
10:15 PM,64.6,58.1,79,30.08,10.0,Calm,Calm,-,N/A,,Clear,0,2013-07-26 03:15:00
10:35 PM,64.6,57.7,78,30.08,10.0,Calm,Calm,-,N/A,,Clear,0,2013-07-26 03:35:00
10:55 PM,63.5,57.6,81,30.07,10.0,Calm,Calm,-,N/A,,Clear,0,2013-07-26 03:55:00
11:15 PM,64.0,57.9,80,30.08,10.0,SW,3.5,-,N/A,,Clear,220,2013-07-26 04:15:00
11:35 PM,64.2,57.0,77,30.07,10.0,South,3.5,-,N/A,,Clear,190,2013-07-26 04:35:00
11:55 PM,63.9,57.4,79,30.07,10.0,Calm,Calm,-,N/A,,Clear,0,2013-07-26 04:55:00